RH
72 57 98 100 100 89 100 82 89 100 85 86 78 43 100 100 72 63 66 91 80 65 81 100 100 94 44 46 44 47 75 80 83 89 84 89 90 82 80 73 65 56 47 47
79 96 100 100 100 96 68 73 100 100 100 95 86 58 70 93 89 79 63 47 39 34 30 32 37 44 57 51 49 49 67 80 92 96 99 96 88 89 89 85 67 62 63 60
76 93 100 100 100 88 84 89 100 99 98 79 92 96 78 74 88 94 61 55 56 52 54 59 57 67 83 74 70 78 74 76 87 100 100 100 100 99 91 72 67 64 62 56
68 80 91 100 93 92 86 90 96 77 94 100 100 79 99 100 85 70 65 74 75 76 67 55 52 62 72 81 91 96 86 88 90 100 100 100 100 76 64 65 66 62 53 43
69 84 94 87 98 99 96 85 87 79 84 99 98 91 100 100 100 100 94 98 100 100 85 71 80 78 85 90 79 93 96 89 99 100 100 91 61 62 58 53 47 39 33 30
74 78 82 99 97 98 95 94 97 100 100 100 100 100 91 81 97 88 92 98 100 92 100 100 100 100 97 92 99 94 96 96 100 100 80 66 54 52 48 44 33 29 24 16
89 69 59 65 92 98 100 100 100 100 100 100 100 100 85 79 82 77 83 85 79 83 94 100 98 96 97 96 94 90 93 98 100 83 62 60 56 52 46 36 30 22 15 15
98 93 99 90 100 99 100 100 92 99 100 100 100 88 97 98 96 98 84 89 96 82 88 86 98 93 100 97 84 92 94 93 76 68 62 61 56 53 41 32 25 16 15 14
93 78 92 100 94 91 100 99 100 100 100 97 95 100 100 100 99 86 97 100 100 84 79 89 85 96 89 81 90 93 80 72 62 51 51 55 62 51 41 33 22 18 16 12
86 91 76 88 100 94 97 100 100 100 100 100 100 100 100 100 100 99 100 89 82 100 100 100 100 100 94 82 81 76 66 62 54 50 59 65 64 52 36 30 23 19 16 12
69 81 77 89 86 100 100 100 100 100 100 100 100 100 100 100 100 100 97 77 76 95 90 95 95 87 81 78 75 53 64 61 60 63 65 66 59 44 35 25 22 20 15 11
56 71 73 82 94 100 99 98 99 99 100 100 100 100 100 100 100 100 89 100 100 100 94 89 77 68 80 78 62 61 58 69 73 65 66 73 54 36 27 21 19 18 14 13
98 100 87 80 72 84 81 100 100 100 100 93 74 99 100 93 75 85 90 93 98 99 89 75 75 70 80 85 77 75 79 72 65 69 80 64 41 25 19 16 16 14 14 16
96 99 86 100 100 93 84 98 89 76 74 74 83 100 100 100 100 99 95 90 92 100 87 70 84 98 99 97 82 78 69 69 82 84 65 56 35 20 15 13 12 14 15 13
100 100 100 100 99 90 100 100 100 95 100 90 84 100 100 100 100 100 100 100 100 100 100 100 97 95 94 70 82 75 63 86 74 75 66 42 19 16 14 12 14 14 12 14
100 100 100 100 100 100 100 100 100 78 100 82 81 100 100 88 76 93 80 74 77 100 100 100 100 97 100 84 67 68 86 77 73 59 37 26 16 13 13 14 14 13 16 21
100 100 100 100 100 100 100 100 100 100 100 100 100 100 100 100 100 100 100 100 100 100 100 91 100 99 72 70 83 87 66 68 52 40 26 16 14 14 14 14 14 19 22 20
78 95 93 89 99 92 91 100 100 100 100 100 100 100 94 100 100 98 100 95 99 100 100 100 97 92 89 85 61 58 53 38 38 24 18 14 14 15 14 17 23 22 22 24
54 64 72 69 71 64 59 64 100 100 100 100 100 82 55 59 58 58 68 83 92 100 100 95 79 79 79 65 58 36 28 25 23 17 15 15 16 16 20 25 23 23 31 41
37 42 48 55 61 59 58 54 53 46 42 43 39 36 35 36 36 45 78 80 75 66 66 60 52 60 50 37 31 22 20 22 17 15 16 17 17 22 25 25 30 40 50 54
18 19 23 30 32 32 31 31 29 26 23 22 23 25 28 30 31 34 39 41 35 32 32 36 33 31 27 21 18 18 21 17 17 17 18 19 24 26 34 44 50 53 54 51
17 16 17 17 16 16 17 18 17 16 14 17 20 22 22 23 23 23 24 24 24 23 24 22 21 21 19 17 18 19 17 18 18 19 21 27 30 41 45 50 48 43 42 41
19 16 15 14 14 14 16 16 15 15 15 14 16 18 18 19 20 21 21 21 22 21 21 19 18 17 16 17 17 18 19 19 21 25 31 39 48 51 49 42 41 35 30 28
13 12 13 12 14 12 12 14 14 14 15 14 17 18 18 18 19 20 20 20 20 18 16 16 16 15 16 16 18 20 20 23 28 35 51 53 56 50 46 40 31 24 22 21
11 9 10 10 11 9 9 10 12 13 13 14 17 17 15 16 17 16 16 16 15 14 14 15 14 15 16 18 19 20 24 31 39 62 59 61 52 48 45 32 25 23 21 22
6 5 8 10 8 8 12 11 12 12 12 15 15 14 13 13 14 13 13 13 12 12 14 14 14 15 18 18 21 25 33 45 71 68 65 59 57 52 38 29 26 24 24 26
Wind_Speed
70 64 62 64 62 66 61 59 59 61 61 54 53 54 51 55 49 48 45 40 51 43 48 54 56 56 59 59 66 70 72 74 75 78 81 79 77 79 80 83 82 83 82 78
60 54 61 63 61 59 61 60 59 60 61 57 50 48 48 56 60 57 55 61 62 58 56 57 58 61 66 66 69 73 75 76 79 83 85 85 85 85 86 89 91 89 84 85
68 61 66 62 62 61 58 57 63 57 62 58 57 55 54 60 60 57 55 60 61 64 61 61 65 66 69 72 75 78 79 82 84 86 87 88 89 92 96 98 93 91 91 93
66 71 70 70 65 66 61 61 67 61 59 63 66 55 57 61 65 62 63 64 65 66 67 71 71 70 73 75 76 80 83 85 87 88 89 92 101 104 100 96 95 99 103 106
70 74 74 73 72 70 65 64 66 65 64 67 67 65 56 66 64 61 61 62 63 72 71 71 72 76 76 78 80 83 85 89 89 91 96 104 102 98 99 101 105 107 106 104
78 81 80 78 78 75 77 71 67 67 71 69 68 73 60 71 71 65 69 69 72 73 75 75 77 78 81 83 84 85 89 92 93 100 104 103 103 106 107 108 108 106 100 89
90 86 89 87 83 80 80 75 73 74 77 70 76 82 67 73 74 72 71 75 80 80 81 83 85 85 86 87 89 92 94 97 101 104 105 105 108 110 109 109 105 100 88 77
95 88 90 91 86 86 85 82 79 80 80 76 77 77 73 74 74 75 75 79 85 86 86 87 87 87 90 91 95 96 100 102 106 106 106 109 112 111 109 105 100 90 77 70
103 97 93 93 93 90 86 83 82 88 86 81 79 81 81 81 82 82 82 84 88 91 91 93 97 95 96 99 101 104 106 108 106 108 109 112 112 110 106 100 92 80 72 67
105 101 96 96 99 94 95 91 93 94 91 90 83 83 87 88 88 90 92 92 92 94 98 98 97 99 102 105 107 108 110 108 110 111 112 113 112 109 100 94 84 74 69 66
103 107 96 104 99 97 99 99 99 100 98 93 90 89 89 95 97 100 100 97 99 101 104 103 103 106 108 108 111 114 110 111 112 115 115 114 112 105 96 87 78 72 67 62
116 118 107 102 105 104 104 105 107 105 99 101 98 95 93 96 106 107 105 103 105 106 110 110 110 111 111 114 111 113 114 114 116 118 116 115 110 101 90 80 72 67 64 59
120 121 117 111 108 106 108 106 106 109 109 107 107 95 99 105 108 108 110 110 111 111 113 114 113 113 114 115 114 115 116 118 120 120 119 113 103 92 81 73 66 63 60 56
123 119 118 109 105 104 106 104 108 115 119 108 107 105 99 105 109 110 110 112 115 113 114 117 115 113 113 115 118 120 120 122 123 122 113 107 96 86 74 66 59 55 53 51
115 117 116 117 112 111 106 106 103 109 108 110 100 108 106 108 113 116 117 112 113 114 117 120 121 119 119 123 124 124 125 125 121 115 110 98 86 75 67 61 55 50 48 44
119 117 121 122 106 116 117 101 99 110 111 119 113 108 109 111 117 123 122 125 121 117 120 126 127 124 121 129 127 125 128 122 116 110 96 87 77 67 62 54 50 46 42 38
138 136 136 136 135 126 124 115 113 106 110 116 117 116 118 120 121 124 124 123 122 122 126 128 129 132 133 130 129 128 122 116 102 95 86 77 68 62 56 48 45 41 38 38
138 145 150 147 146 148 135 125 125 126 123 127 134 134 135 134 132 133 132 128 127 126 127 131 133 133 132 131 124 121 109 98 91 83 74 66 61 55 49 43 39 38 38 37
116 125 133 138 144 146 144 139 143 142 143 143 144 144 140 136 139 135 133 129 125 124 127 131 131 130 130 124 116 105 96 82 77 70 64 59 54 48 44 40 39 37 37 36
103 105 111 116 122 124 121 126 128 129 125 125 124 122 121 119 123 122 124 127 127 125 125 125 122 119 116 107 100 90 75 72 66 62 57 52 47 44 41 39 38 37 37 38
92 96 99 103 107 107 106 110 113 115 111 114 112 110 108 106 107 107 110 112 113 111 108 104 101 99 95 91 82 72 68 63 58 55 48 44 42 40 38 39 39 40 40 41
82 85 89 93 95 95 96 100 101 103 99 96 98 98 98 99 98 97 97 96 95 92 90 89 87 85 83 77 69 62 58 54 51 45 41 40 38 38 39 40 41 40 40 40
71 79 79 83 86 81 83 85 86 86 86 84 82 83 84 85 84 83 83 83 83 82 81 80 77 74 70 63 57 53 51 47 41 39 37 36 36 38 39 37 35 34 33 34
70 73 74 73 71 71 71 73 74 74 76 73 72 72 73 73 73 73 73 73 74 74 71 69 67 64 58 55 50 47 43 38 37 35 34 34 36 36 35 33 32 31 30 30
71 73 64 60 64 64 63 62 61 63 62 61 62 64 63 62 64 64 64 64 65 64 61 59 59 55 52 48 44 40 36 34 34 33 32 33 35 32 32 31 29 29 28 26
64 53 49 51 56 52 53 53 54 53 52 54 57 56 56 54 56 57 56 56 56 54 52 54 51 49 45 43 36 34 32 31 30 31 31 31 30 29 29 28 27 26 26 26
Wind_Direction
268 274 274 266 267 270 273 276 276 272 269 271 271 274 281 281 273 271 269 271 288 289 290 291 291 291 298 296 303 301 299 301 302 301 302 303 301 302 302 303 300 301 297 288
268 271 264 269 272 273 273 275 277 272 269 274 275 273 265 272 276 274 275 275 276 280 286 286 288 293 296 298 300 305 303 302 300 300 301 301 300 300 301 301 300 298 291 287
266 267 271 275 273 273 270 273 276 274 276 280 276 274 274 273 271 276 281 281 283 286 287 288 288 293 294 298 300 303 304 302 301 300 300 299 299 300 300 300 297 293 291 288
266 271 272 276 275 274 271 273 274 276 277 278 279 281 279 270 268 271 275 278 282 284 284 286 290 292 294 296 297 299 301 301 301 300 300 299 299 300 300 297 295 295 293 292
270 272 274 275 277 276 277 274 272 275 278 276 277 279 277 273 273 275 280 281 283 283 286 290 293 293 293 294 297 299 299 301 301 299 298 299 300 299 297 297 293 292 292 290
269 271 273 274 273 278 277 276 277 275 272 274 275 275 278 277 274 278 281 281 282 285 290 292 292 292 292 295 295 297 298 299 298 298 299 297 298 300 299 298 297 295 295 291
267 271 275 272 274 275 276 276 273 272 273 276 272 274 277 276 279 280 280 281 282 286 288 289 291 292 294 295 296 297 298 297 297 298 299 298 300 302 301 300 299 298 296 292
266 266 273 274 272 272 274 277 280 278 275 273 276 280 277 276 276 280 283 284 284 286 289 290 293 294 294 294 296 297 297 297 298 300 301 302 303 303 303 302 301 299 296 292
268 267 268 270 271 270 275 275 273 274 277 278 279 278 277 280 282 282 279 281 283 286 289 291 291 294 293 295 296 297 298 299 300 303 303 305 306 306 305 304 303 299 296 292
266 266 266 266 268 270 272 273 275 276 276 278 279 277 280 281 281 281 282 282 284 287 289 290 290 291 292 295 296 297 298 300 302 304 306 307 307 306 305 305 302 298 295 291
265 268 267 265 266 267 268 270 270 272 275 276 278 277 276 282 283 281 282 284 285 287 288 289 290 292 295 296 295 298 300 301 304 306 307 307 307 306 305 303 300 296 293 290
270 266 266 268 266 264 265 267 270 270 271 271 274 277 278 279 279 281 284 286 287 287 288 290 291 293 294 294 297 299 301 302 304 306 307 307 306 305 304 302 297 294 292 290
267 269 271 270 266 265 268 267 266 269 269 273 273 275 276 277 277 279 282 285 286 286 288 290 292 293 293 295 298 300 301 303 305 307 306 306 306 305 303 298 296 293 289 288
266 269 271 269 266 265 269 265 267 267 271 274 274 277 278 280 282 282 283 282 283 286 288 291 292 293 294 295 297 299 302 304 306 304 306 306 306 304 301 297 295 290 286 285
263 266 266 269 270 270 268 266 267 267 268 269 273 273 274 277 280 283 285 288 288 290 291 291 292 294 293 296 298 300 302 303 304 304 305 304 303 302 299 298 294 289 286 283
253 255 258 264 261 260 265 261 265 266 264 265 270 269 269 272 277 279 279 281 284 288 289 289 292 293 293 294 297 300 300 303 303 304 302 301 301 300 299 294 290 288 286 281
252 250 254 258 261 257 259 262 263 264 263 267 267 271 270 274 276 277 277 280 283 283 284 287 289 290 292 295 297 297 299 300 300 300 300 299 299 298 293 290 289 287 283 280
252 254 257 258 260 260 258 257 259 261 261 263 266 269 273 272 272 276 275 276 279 281 282 284 286 289 290 292 295 298 297 299 299 298 297 297 297 292 289 289 286 282 279 278
250 252 254 256 258 261 262 261 256 257 259 263 266 269 271 270 272 272 274 276 277 279 279 281 285 286 288 292 293 295 296 297 295 295 295 294 290 287 287 285 281 280 279 278
252 253 253 255 257 259 261 263 265 265 265 266 266 267 269 270 271 272 272 275 277 278 280 281 285 286 287 289 291 291 295 293 292 294 292 288 285 285 283 281 281 279 278 277
253 254 254 255 257 259 262 262 264 265 266 266 268 269 270 270 270 271 273 274 276 279 282 281 282 283 285 287 290 293 290 291 292 288 285 283 282 281 282 283 281 279 278 277
251 253 252 253 255 257 258 260 262 264 266 265 266 268 268 269 271 273 274 275 276 277 278 279 281 283 284 286 288 287 288 288 284 281 280 279 280 281 282 282 282 281 278 275
248 250 252 252 254 254 255 258 261 264 266 267 267 268 269 271 272 272 273 273 274 276 277 278 281 282 283 284 283 284 282 278 277 277 276 277 279 282 284 284 283 282 279 275
248 249 250 253 256 256 256 259 260 262 263 264 266 267 269 270 272 272 272 273 273 274 276 278 278 279 280 279 280 276 273 271 271 270 272 277 281 283 283 283 282 280 276 273
248 249 250 253 254 258 258 260 260 262 264 265 263 265 266 267 269 271 272 271 271 274 276 276 276 278 276 275 270 267 265 265 265 267 275 281 282 281 280 280 280 279 277 273
257 258 261 259 258 257 257 259 258 260 261 263 262 265 269 271 269 268 269 271 272 272 272 271 272 272 268 264 262 259 258 259 262 272 279 282 282 280 278 279 279 280 279 279